#datint,netname,site,siteID,timestamp,IntT,BattV,AirT2,AirT,AirT_Avg,AirT_Max,AirT_Min,RH_Avg,RH_Max,RH_Min,EA_Avg,Td_Avg,Td_Max,Td_Min,WindS_Smp,WindS_Avg,WindD_Avg,WindD_SD,WindS_Max,ETo,ETr,SoilT4,SoilT8,SoilVWC8,SolarW_Avg,wetstate_Avg,wetT_Avg,Precip_accum,Precip_WPG,Precip_TB
15min,AgWx,beryljct,423,08NOV2018:00:00:00,29.9,12.92,31.4,30.7,30.9,31.2,30.7,56,57,56,0.331,17.2,17.4,16.9,0.636,1.3,32,15,2.4,-0.00012,-0.00015,44.7,47.1,22,0,0,35.8,8.36,0.00,0.00
15min,AgWx,beryljct,423,08NOV2018:00:15:00,29.5,12.91,30.9,30.2,30.4,30.8,30.2,57,58,57,0.326,17.1,17.5,16.9,0.789,0.4,45,1.5,1.5,-0.00021,-0.00031,44.5,47.1,22,0,0,35.7,8.36,0.00,0.00
15min,AgWx,beryljct,423,08NOV2018:00:30:00,29.2,12.75,30.0,28.8,29.6,30.2,28.7,58,60,57,0.322,16.9,17.1,16.2,1.359,1.7,6.8,5.0,2.7,-0.00009,-0.00010,44.3,47.0,22,0,0,35.5,8.36,0.00,0.00
15min,AgWx,beryljct,423,08NOV2018:00:45:00,28.9,12.88,29.3,28.6,28.8,29.2,28.2,60,61,60,0.324,16.8,17.2,16.5,0,1.2,6.5,8.2,2.7,-0.00013,-0.00016,44.1,47.0,22,0,0,35.5,8.36,0.00,0.00
15min,AgWx,beryljct,423,08NOV2018:01:00:00,28.5,12.86,29.0,27.8,28.5,28.9,27.8,61,63,60,0.323,16.8,17.1,16.4,0.943,1.0,284,45,2.8,-0.00014,-0.00019,43.9,46.9,22,0,0,35.5,8.36,0.00,0.00
15min,AgWx,beryljct,423,08NOV2018:01:15:00,28.0,12.86,28.8,28.4,28.2,28.8,27.4,62,64,61,0.326,17.0,17.4,16.3,0,0.3,53,30,1.9,-0.00020,-0.00031,43.7,46.8,22,0,0,35.4,8.37,0.00,0.00
15min,AgWx,beryljct,423,08NOV2018:01:30:00,27.5,12.86,29.5,29.3,28.8,29.4,28.4,61,62,60,0.328,17.1,17.4,16.6,1.951,0.5,55,3.5,3.3,-0.00019,-0.00028,43.4,46.7,22,0,0,35.6,8.36,0.00,0.00
15min,AgWx,beryljct,423,08NOV2018:01:45:00,27.3,12.7,29.5,28.8,29.0,29.4,28.8,61,62,60,0.330,17.4,17.7,17.1,3.244,2.7,46,6.7,3.7,-0.00004,-0.00003,43.2,46.7,22,0,0,35.8,8.37,0.00,0.00
15min,AgWx,beryljct,423,08NOV2018:02:00:00,27.3,12.82,28.4,27.4,28.0,28.8,27.4,61,63,61,0.310,16.5,17.3,15.7,0,1.5,25,9.0,3.6,-0.00010,-0.00013,43.0,46.6,22,0,0,35.5,8.36,0.00,0.00
15min,AgWx,beryljct,423,08NOV2018:02:15:00,27.0,12.82,27.8,27.2,27.3,27.5,26.8,61,62,60,0.310,15.7,15.9,15.0,2.609,1.4,332,20,2.9,-0.00011,-0.00013,42.8,46.5,22,0,0,35.5,8.37,0.00,0.00
15min,AgWx,beryljct,423,08NOV2018:02:30:00,26.6,12.81,27.5,26.5,27.0,27.4,26.5,61,61,60,0.299,15.3,15.8,14.9,2.455,2.0,341,24,2.9,-0.00007,-0.00008,42.6,46.4,22,0,0,35.4,8.37,0.00,0.00
15min,AgWx,beryljct,423,08NOV2018:02:45:00,26.4,12.8,27.0,26.5,26.5,26.8,26.2,61,62,61,0.299,15.0,15.2,14.6,3.529,3.1,342,13,4.4,-0.00002,-0.00001,42.5,46.4,22,0,0,35.4,8.37,0.00,0.00
15min,AgWx,beryljct,423,08NOV2018:03:00:00,26.1,12.65,26.0,26.0,25.5,26.5,24.7,63,65,61,0.298,14.7,15.0,14.3,3.244,3.1,330,16,3.9,-0.00002,-0.00001,42.3,46.3,22,0,0,35.8,8.37,0.00,0.00
15min,AgWx,beryljct,423,08NOV2018:03:15:00,25.8,12.77,26.8,26.7,26.2,26.8,25.6,62,63,61,0.298,14.8,15.2,14.4,2.938,3.0,349,26,5.8,-0.00002,-0.00001,42.1,46.2,22,0,0,35.7,8.37,0.00,0.00
15min,AgWx,beryljct,423,08NOV2018:03:30:00,25.7,12.75,26.4,25.0,26.0,26.7,25.0,62,63,61,0.290,14.7,14.9,14.1,1.885,2.5,11,9.3,4.5,-0.00004,-0.00004,41.9,46.1,22,0,0,35.5,8.37,0.00,0.00
15min,AgWx,beryljct,423,08NOV2018:03:45:00,25.4,12.75,25.5,24.3,25.0,25.7,24.2,63,65,62,0.288,14.4,14.8,13.9,1.622,2.1,3.8,8.2,3.3,-0.00007,-0.00007,41.7,46.1,22,0,0,35.5,8.37,0.00,0.00
15min,AgWx,beryljct,423,08NOV2018:04:00:00,24.8,12.74,25.4,26.0,24.6,26.0,23.5,65,66,63,0.300,14.4,15.1,13.4,4.099,1.6,359,23,4.1,-0.00009,-0.00011,41.6,46.0,22,0,0,35.4,8.37,0.00,0.00
15min,AgWx,beryljct,423,08NOV2018:04:15:00,24.6,12.73,26.2,25.7,25.7,26.0,25.3,65,67,63,0.310,15.6,15.9,15.0,4.297,3.4,42,7.4,5.6,-0.00001,-0.00000,41.4,45.9,22,0,0,35.3,8.37,0.00,0.00
15min,AgWx,beryljct,423,08NOV2018:04:30:00,24.6,12.71,25.4,24.8,24.9,25.5,24.3,67,68,66,0.298,15.4,16.0,14.8,1.008,3.0,35,7.3,5.6,-0.00003,-0.00003,41.3,45.8,22,0,0,35.6,8.37,0.00,0.00
15min,AgWx,beryljct,423,08NOV2018:04:45:00,24.2,12.71,25.3,24.5,24.7,25.0,24.5,66,67,65,0.300,15.0,15.2,14.8,2.105,1.1,47,11,2.3,-0.00012,-0.00016,41.1,45.7,22,0,0,35.6,8.37,0.00,0.00
15min,AgWx,beryljct,423,08NOV2018:05:00:00,23.8,12.7,24.5,23.4,24.0,24.5,23.4,67,68,66,0.291,14.7,15.1,14.2,3.99,2.5,37,14,4.6,-0.00005,-0.00006,41.0,45.7,22,0,0,35.5,8.37,0.00,0.00
15min,AgWx,beryljct,423,08NOV2018:05:15:00,23.6,12.7,23.4,23.0,22.8,23.4,22.6,70,72,68,0.298,14.4,15.1,13.9,3.727,4.0,30,10,5.4,-0.00001,-0.00000,40.8,45.6,22,0,0,35.6,8.37,0.00,0.00
15min,AgWx,beryljct,423,08NOV2018:05:30:00,23.4,12.69,23.3,22.5,22.8,23.1,22.5,70,71,70,0.292,14.6,15.0,14.3,3.902,3.8,31,8.1,5.4,-0.00002,-0.00001,40.7,45.5,22,0,0,35.6,8.37,0.00,0.00
15min,AgWx,beryljct,423,08NOV2018:05:45:00,23.3,12.55,23.6,23.0,23.0,23.3,22.4,71,72,70,0.294,15.1,15.5,14.4,3.551,3.9,32,6.5,5.7,-0.00002,-0.00001,40.5,45.4,22,0,0,35.7,8.37,0.00,0.00
15min,AgWx,beryljct,423,08NOV2018:06:00:00,23.2,12.67,23.5,23.5,22.9,23.5,22.3,71,72,70,0.305,14.9,15.5,14.4,4.954,4.9,31,7.0,7.3,0.00000,0.00002,40.4,45.3,22,0,0,35.7,8.37,0.00,0.00
15min,AgWx,beryljct,423,08NOV2018:06:15:00,23.3,12.66,24.0,23.2,23.4,23.7,23.1,71,72,70,0.303,15.4,15.6,15.2,3.683,4.1,40,5.4,6.1,-0.00001,-0.00000,40.3,45.3,22,0,0,36.0,8.37,0.00,0.00
15min,AgWx,beryljct,423,08NOV2018:06:30:00,23.2,12.68,23.8,23.4,23.1,23.5,22.9,71,71,70,0.301,15.1,15.3,14.9,5.064,3.9,37,8.4,5.3,0.00014,0.00024,40.2,45.2,22,0,0,35.8,8.37,0.00,0.00
15min,AgWx,beryljct,423,08NOV2018:06:45:00,23.3,12.67,24.9,24.7,24.1,24.8,23.4,69,70,67,0.307,15.4,15.7,15.1,5.502,6.2,51,8.8,9.8,0.00022,0.00038,40.0,45.1,22,0,0,35.6,8.37,0.00,0.00
15min,AgWx,beryljct,423,08NOV2018:07:00:00,23.5,12.68,24.2,23.1,23.8,24.7,23.1,69,70,68,0.291,15.2,15.6,14.4,2.74,3.5,38,8.9,7.1,0.00015,0.00025,39.9,45.0,22,1,0,35.5,8.37,0.00,0.00
15min,AgWx,beryljct,423,08NOV2018:07:15:00,23.1,12.54,23.3,22.1,22.9,23.7,21.9,69,70,68,0.286,14.2,14.6,13.6,0.986,1.5,8.7,15,3.6,0.00009,0.00014,39.8,44.9,22,7,0,35.5,8.37,0.00,0.00
15min,AgWx,beryljct,423,08NOV2018:07:30:00,22.7,12.86,23.1,22.6,22.5,22.9,21.8,70,71,69,0.289,14.3,14.8,13.2,5.919,1.6,348,34,5.9,0.00020,0.00026,39.7,44.9,22,41,0,35.8,8.37,0.00,0.00
15min,AgWx,beryljct,423,08NOV2018:07:45:00,23.5,13.15,25.4,25.5,24.6,25.5,22.7,67,70,66,0.309,15.2,15.7,14.4,5.261,6.0,14,11,8.1,0.00040,0.00058,39.6,44.8,22,76,0,35.9,8.37,0.00,0.00
15min,AgWx,beryljct,423,08NOV2018:08:00:00,25.1,13.56,27.1,27.6,26.4,27.6,25.5,65,67,63,0.320,16.2,16.7,15.8,12.78,7.9,27,9.1,12.8,0.00055,0.00079,39.5,44.7,22,113,0,35.9,8.37,0.00,0.00
15min,AgWx,beryljct,423,08NOV2018:08:15:00,27.1,14.2,28.8,28.8,28.2,28.8,27.7,62,63,61,0.326,16.7,17.4,16.3,9.67,9.0,38,8.1,12.1,0.00071,0.00102,39.4,44.6,22,154,0,36.1,8.37,0.00,0.00
15min,AgWx,beryljct,423,08NOV2018:08:30:00,29.1,14.81,30.4,30.8,29.8,30.8,28.8,59,61,55,0.326,17.1,17.5,16.7,9.05,10.1,40,7.6,14.9,0.00089,0.00126,39.3,44.6,22,198,0,36.8,8.37,0.00,0.00
15min,AgWx,beryljct,423,08NOV2018:08:45:00,31.1,14.8,31.9,31.9,31.4,31.9,30.8,55,57,51,0.315,16.9,17.6,15.9,13.92,11.9,31,8.9,15.8,0.00110,0.00157,39.2,44.5,22,241,0,38.6,8.37,0.00,0.00
15min,AgWx,beryljct,423,08NOV2018:09:00:00,32.8,14.74,32.5,32.4,32.0,32.4,31.8,52,54,50,0.319,16.3,17.3,15.7,11.84,15.2,42,6.9,19.6,0.00129,0.00187,39.1,44.4,22,284,0,39.2,8.37,0.00,0.00
15min,AgWx,beryljct,423,08NOV2018:09:15:00,34.1,14.69,33.0,32.8,32.5,32.8,32.3,51,53,49,0.315,16.3,17.1,15.7,15.3,14.9,48,8.3,20.3,0.00141,0.00201,39.0,44.3,22,325,0,40.2,8.37,0.00,0.00
15min,AgWx,beryljct,423,08NOV2018:09:30:00,35.2,14.72,33.7,33.6,33.2,33.6,32.7,49,50,47,0.321,16.1,16.8,15.2,16.68,16.4,47,6.8,21.4,0.00156,0.00223,39.0,44.3,22,364,0,41.0,8.37,0.00,0.00
15min,AgWx,beryljct,423,08NOV2018:09:45:00,36.3,14.65,34.5,34.4,34.0,34.5,33.6,47,49,46,0.311,16.1,16.8,15.6,18.61,17.1,39,7.5,21.2,0.00171,0.00242,38.9,44.2,22,402,0,41.8,8.36,0.00,0.00
15min,AgWx,beryljct,423,08NOV2018:10:00:00,37.2,14.66,35.2,35.1,34.7,35.2,34.2,47,48,45,0.319,16.3,17.2,15.8,16.27,17.3,44,8.2,21.2,0.00183,0.00259,38.8,44.1,22,437,0,42.7,8.36,0.00,0.00
15min,AgWx,beryljct,423,08NOV2018:10:15:00,38.1,14.64,35.8,35.6,35.4,36.0,35.0,46,48,43,0.305,16.5,17.4,15.5,18.2,16.9,44,8.2,20.9,0.00195,0.00273,38.8,44.1,22,468,0,43.6,8.36,0.00,0.00
15min,AgWx,beryljct,423,08NOV2018:10:30:00,38.7,14.64,36.0,35.7,35.6,36.2,35.3,45,47,43,0.321,16.2,17.4,15.4,16.18,17.4,48,7.5,22.7,0.00204,0.00285,38.8,44.0,22,498,0,43.9,8.36,0.00,0.00
15min,AgWx,beryljct,423,08NOV2018:10:45:00,39.3,14.23,36.5,36.7,36.0,36.7,35.6,44,46,43,0.338,16.3,17.8,15.4,17.45,18.7,52,8.2,24.6,0.00214,0.00299,38.8,43.9,22,523,0,44.1,8.36,0.00,0.00
15min,AgWx,beryljct,423,08NOV2018:11:00:00,39.8,14.22,37.2,37.3,36.8,37.4,36.4,44,46,42,0.329,16.7,17.8,15.6,17.12,18.1,49,8.4,24.3,0.00223,0.00311,38.9,43.9,22,545,0,44.9,8.36,0.00,0.00
15min,AgWx,beryljct,423,08NOV2018:11:15:00,40.5,14.19,38.2,37.9,37.8,38.4,37.3,41,44,37,0.315,16.1,17.8,14.1,17.34,18.6,36,10,24.2,0.00239,0.00334,39.0,43.8,22,563,0,45.6,8.36,0.00,0.00
15min,AgWx,beryljct,423,08NOV2018:11:30:00,41.1,14.22,38.4,38.2,38.0,38.6,37.6,40,44,36,0.298,15.7,18.3,13.9,18.17,17.6,40,8.3,22.4,0.00246,0.00341,39.1,43.7,22,579,0,46.0,8.35,0.00,0.00
15min,AgWx,beryljct,423,08NOV2018:11:45:00,41.5,14.17,38.7,38.1,38.4,38.9,38.1,38,41,36,0.301,15.0,16.8,13.5,19.34,19.1,38,9.6,25.1,0.00255,0.00357,39.3,43.7,22,593,0,45.9,8.35,0.00,0.00
15min,AgWx,beryljct,423,08NOV2018:12:00:00,41.8,14.18,39.2,38.9,38.8,39.3,38.1,37,40,32,0.274,14.6,16.8,11.7,17.65,18.4,38,12,24.1,0.00261,0.00365,39.5,43.6,22,606,0,46.0,8.35,0.00,0.00
15min,AgWx,beryljct,423,08NOV2018:12:15:00,42.3,14.15,39.9,39.6,39.5,40.2,38.9,35,39,32,0.280,14.0,17.4,12.0,18.13,17.4,30,8.3,25.1,0.00271,0.00377,39.8,43.6,22,609,0,46.5,8.35,0.00,0.00
15min,AgWx,beryljct,423,08NOV2018:12:30:00,42.6,14.14,40.0,39.7,39.7,40.2,39.4,33,36,30,0.291,12.7,15.2,10.9,15.15,18.9,28,11,23.9,0.00277,0.00392,40.1,43.6,22,609,0,46.0,8.35,0.00,0.00
15min,AgWx,beryljct,423,08NOV2018:12:45:00,43.0,14.14,40.4,40.2,40.0,40.9,39.3,34,38,31,0.288,13.9,16.6,11.9,18.87,17.3,32,12,23.7,0.00275,0.00384,40.3,43.5,22,604,0,46.3,8.35,0.00,0.00
15min,AgWx,beryljct,423,08NOV2018:13:00:00,43.5,14.11,40.6,39.9,40.3,41.0,39.8,34,38,32,0.283,14.4,17.0,12.4,18.59,16.8,36,9.9,22.0,0.00273,0.00381,40.6,43.5,22,596,0,46.3,8.35,0.00,0.00
15min,AgWx,beryljct,423,08NOV2018:13:15:00,43.8,14.11,40.9,40.7,40.5,41.1,39.9,33,37,29,0.309,13.6,16.1,11.1,14.42,17.2,32,9.8,23.3,0.00274,0.00386,40.9,43.5,22,583,0,45.8,8.35,0.00,0.00
15min,AgWx,beryljct,423,08NOV2018:13:30:00,44.1,14.21,40.9,40.5,40.7,41.0,40.2,33,35,31,0.289,14.0,15.6,12.3,16.42,18.4,38,12,24.7,0.00273,0.00388,41.2,43.5,22,574,0,45.4,8.34,0.00,0.00
15min,AgWx,beryljct,423,08NOV2018:13:45:00,44.4,14.12,41.2,41.0,40.9,41.5,40.3,32,36,28,0.277,13.2,15.7,10.2,17.25,17.4,30,13,21.9,0.00270,0.00385,41.6,43.5,22,553,0,45.0,8.34,0.00,0.00
15min,AgWx,beryljct,423,08NOV2018:14:00:00,44.7,14.08,41.8,41.5,41.4,41.8,40.8,31,34,28,0.275,13.2,15.7,10.7,20.41,18.4,28,14,24.3,0.00269,0.00389,41.9,43.6,22,524,0,44.9,8.34,0.00,0.00
15min,AgWx,beryljct,423,08NOV2018:14:15:00,45.0,14.08,42.2,41.7,41.8,42.4,41.1,29,34,27,0.265,12.2,15.3,10.7,13.33,18.6,24,10,24.8,0.00268,0.00393,42.2,43.6,22,498,0,44.5,8.34,0.00,0.00
15min,AgWx,beryljct,423,08NOV2018:14:30:00,45.2,14.15,42.0,41.6,41.7,42.2,41.3,31,34,28,0.299,13.0,15.2,10.7,16.38,18.9,32,9.7,23.7,0.00260,0.00383,42.5,43.7,22,476,0,44.1,8.34,0.00,0.00
15min,AgWx,beryljct,423,08NOV2018:14:45:00,45.4,14.05,42.3,42.1,41.9,42.3,41.6,30,33,27,0.292,12.7,15.0,10.6,16.7,18.2,30,12,24.4,0.00251,0.00373,42.8,43.7,22,444,0,44.1,8.34,0.00,0.00
15min,AgWx,beryljct,423,08NOV2018:15:00:00,45.7,14.07,42.4,42.3,42.1,42.6,41.6,30,32,27,0.259,12.8,14.9,10.9,16.27,17.7,34,10,28.3,0.00243,0.00364,43.0,43.8,22,413,0,44.3,8.34,0.00,0.00
15min,AgWx,beryljct,423,08NOV2018:15:15:00,45.9,14.05,42.6,42.3,42.3,42.7,41.9,29,31,27,0.264,12.4,13.8,11.0,18.55,17.9,30,8.8,25.0,0.00235,0.00358,43.2,43.8,22,375,0,44.4,8.34,0.00,0.00
15min,AgWx,beryljct,423,08NOV2018:15:30:00,45.9,14.07,42.4,42.2,42.0,42.4,41.6,29,31,28,0.265,12.3,13.4,11.1,12.12,16.8,33,8.1,24.0,0.00219,0.00336,43.4,43.9,22,338,0,44.3,8.34,0.00,0.00
15min,AgWx,beryljct,423,08NOV2018:15:45:00,45.9,14.05,42.1,41.4,41.9,42.3,41.4,30,32,28,0.250,12.6,14.2,10.4,18.46,16.9,38,9.1,23.7,0.00205,0.00320,43.6,44.0,22,296,0,44.2,8.34,0.00,0.00
15min,AgWx,beryljct,423,08NOV2018:16:00:00,45.6,14.11,41.7,41.3,41.4,41.7,41.1,30,31,27,0.257,11.9,13.5,10.1,17.43,17.1,37,6.8,22.0,0.00191,0.00306,43.8,44.1,22,255,0,43.4,8.34,0.00,0.00
15min,AgWx,beryljct,423,08NOV2018:16:15:00,45.1,14.07,41.4,40.9,41.0,41.3,40.8,29,30,28,0.246,11.5,12.3,10.6,16.13,17.4,35,8.6,22.7,0.00179,0.00293,43.9,44.1,22,213,0,42.6,8.34,0.00,0.00
15min,AgWx,beryljct,423,08NOV2018:16:30:00,44.5,14.13,40.9,40.5,40.6,40.9,40.4,30,31,28,0.253,11.3,12.4,10.2,15.17,16.5,31,8.8,21.9,0.00161,0.00269,44.0,44.2,22,172,0,41.7,8.34,0.00,0.00
15min,AgWx,beryljct,423,08NOV2018:16:45:00,43.9,14.15,40.4,39.9,40.0,40.5,39.7,30,32,29,0.248,11.2,12.2,10.3,12.58,16.7,30,7.6,21.9,0.00062,0.00069,44.0,44.3,22,128,0,40.7,8.34,0.00,0.00
15min,AgWx,beryljct,423,08NOV2018:17:00:00,42.9,14.15,39.6,38.8,39.4,39.8,38.8,31,33,29,0.258,11.3,12.5,9.9,14.71,14.0,30,7.7,18.0,0.00054,0.00062,44.0,44.4,22,88,0,39.5,8.34,0.00,0.00
15min,AgWx,beryljct,423,08NOV2018:17:15:00,41.8,13.38,38.9,38.2,38.7,38.9,38.2,31,32,30,0.244,10.8,11.6,10.1,14.03,14.3,22,9.6,21.1,0.00050,0.00057,44.0,44.4,22,43,0,38.3,8.34,0.00,0.00
15min,AgWx,beryljct,423,08NOV2018:17:30:00,40.3,13.26,37.8,37.0,37.6,38.3,37.0,32,33,31,0.246,10.6,11.0,10.3,11.07,12.3,21,8.5,16.6,0.00042,0.00049,44.0,44.5,22,10,0,36.9,8.34,0.00,0.00
15min,AgWx,beryljct,423,08NOV2018:17:45:00,38.9,13.2,37.0,36.6,36.7,37.1,36.4,33,34,32,0.241,10.4,10.9,9.9,11.53,10.9,18,8.7,17.0,0.00037,0.00044,44.0,44.5,22,3,0,35.7,8.34,0.00,0.00
15min,AgWx,beryljct,423,08NOV2018:18:00:00,37.6,13.16,35.6,34.5,35.4,36.5,34.5,36,39,33,0.262,11.3,12.4,10.1,6.116,7.7,29,10,11.6,0.00027,0.00034,43.9,44.6,22,0,0,35.3,8.34,0.00,0.00
15min,AgWx,beryljct,423,08NOV2018:18:15:00,36.0,13.12,34.0,32.9,33.7,34.5,32.9,41,43,39,0.272,12.3,12.9,11.7,3.705,5.0,59,8.5,6.9,0.00014,0.00020,43.8,44.6,22,0,0,35.3,8.34,0.00,0.00
15min,AgWx,beryljct,423,08NOV2018:18:30:00,34.6,12.96,34.1,33.6,33.5,34.1,32.8,41,43,39,0.257,12.1,12.8,11.4,3.639,3.8,68,10,6.2,0.00009,0.00013,43.7,44.7,22,0,0,36.0,8.34,0.00,0.00
15min,AgWx,beryljct,423,08NOV2018:18:45:00,33.5,13.09,33.1,32.1,32.8,33.5,32.1,41,44,39,0.267,12.0,12.9,11.3,4.099,4.4,93,13,6.8,0.00011,0.00016,43.5,44.7,22,0,0,35.5,8.34,0.00,0.00
15min,AgWx,beryljct,423,08NOV2018:19:00:00,32.7,13.08,32.8,32.3,32.3,32.8,31.7,44,46,42,0.279,12.8,13.8,12.3,4.428,5.3,60,6.3,7.2,0.00013,0.00018,43.4,44.7,22,0,0,35.8,8.34,0.00,0.00
15min,AgWx,beryljct,423,08NOV2018:19:15:00,32.4,13.07,33.4,32.6,32.8,33.8,32.3,43,46,40,0.271,12.6,13.6,12.1,6.555,7.1,43,11,13.2,0.00020,0.00025,43.2,44.8,22,0,0,35.7,8.34,0.00,0.00
15min,AgWx,beryljct,423,08NOV2018:19:30:00,32.1,13.04,32.7,31.9,32.3,32.7,31.9,44,46,43,0.279,12.8,13.4,12.4,6.138,6.6,41,6.4,9.7,0.00017,0.00022,43.1,44.8,22,0,0,35.6,8.34,0.00,0.00
15min,AgWx,beryljct,423,08NOV2018:19:45:00,31.7,13.02,31.8,31.4,31.3,31.9,30.8,47,49,44,0.270,13.3,14.1,12.3,3.069,4.4,73,17,6.5,0.00009,0.00013,42.9,44.8,22,0,0,35.4,8.35,0.00,0.00
15min,AgWx,beryljct,423,08NOV2018:20:00:00,31.0,13.01,31.7,31.5,31.2,31.7,30.7,45,47,43,0.269,12.2,13.2,11.5,2.477,2.7,85,12,4.5,0.00001,0.00003,42.7,44.8,22,0,0,35.6,8.35,0.00,0.00
15min,AgWx,beryljct,423,08NOV2018:20:15:00,30.3,13.01,31.1,30.1,30.7,31.4,29.9,47,50,45,0.275,12.9,13.6,12.3,2.631,3.2,60,7.1,4.8,0.00003,0.00006,42.5,44.8,22,0,0,35.5,8.35,0.00,0.00
15min,AgWx,beryljct,423,08NOV2018:20:30:00,29.6,13.01,30.4,29.0,30.0,30.8,29.0,46,49,43,0.268,11.9,12.9,11.1,1.184,2.4,102,31,3.4,-0.00002,-0.00000,42.3,44.8,22,0,0,35.6,8.35,0.00,0.00
15min,AgWx,beryljct,423,08NOV2018:20:45:00,29.0,12.99,29.6,28.8,29.1,29.6,28.4,46,50,44,0.243,10.9,12.7,10.2,3.069,1.7,189,33,3.8,-0.00007,-0.00007,42.1,44.7,22,0,0,35.4,8.35,0.00,0.00
15min,AgWx,beryljct,423,08NOV2018:21:00:00,28.5,12.97,30.1,30.1,29.4,30.3,28.4,44,47,42,0.240,10.3,10.9,10.0,1.776,1.5,260,43,3.5,-0.00008,-0.00010,41.9,44.7,22,0,0,35.7,8.35,0.00,0.00
15min,AgWx,beryljct,423,08NOV2018:21:15:00,28.2,12.96,30.8,30.7,30.2,30.8,28.8,42,45,41,0.239,10.1,10.4,9.8,4.012,2.9,357,20,5.0,0.00002,0.00005,41.7,44.7,22,0,0,35.7,8.35,0.00,0.00
15min,AgWx,beryljct,423,08NOV2018:21:30:00,28.3,12.94,29.3,26.7,29.2,30.9,26.7,46,53,41,0.263,10.7,12.2,9.9,4.735,4.8,22,10,6.7,0.00010,0.00014,41.5,44.6,22,0,0,35.3,8.35,0.00,0.00
15min,AgWx,beryljct,423,08NOV2018:21:45:00,27.8,12.94,26.2,25.9,25.8,26.6,25.0,56,59,54,0.262,12.3,12.8,12.0,4.867,5.4,38,3.5,6.9,0.00007,0.00009,41.3,44.6,22,0,0,35.5,8.35,0.00,0.00
15min,AgWx,beryljct,423,08NOV2018:22:00:00,27.2,12.78,25.9,25.7,25.4,25.9,24.8,56,58,55,0.262,11.8,12.6,11.2,5.875,5.5,53,11,7.5,0.00007,0.00010,41.1,44.5,22,0,0,35.4,8.35,0.00,0.00
15min,AgWx,beryljct,423,08NOV2018:22:15:00,26.8,12.9,26.1,25.0,25.6,26.0,25.0,57,58,56,0.266,12.4,12.8,12.0,3.025,4.8,66,13,7.3,0.00005,0.00008,40.9,44.5,22,0,0,35.7,8.35,0.00,0.00
15min,AgWx,beryljct,423,08NOV2018:22:30:00,26.0,12.9,24.0,23.4,23.7,25.0,23.2,57,58,56,0.245,10.7,12.4,10.2,1.71,2.1,347,16,3.0,-0.00005,-0.00005,40.8,44.4,22,0,0,35.6,8.35,0.00,0.00
15min,AgWx,beryljct,423,08NOV2018:22:45:00,25.1,12.87,24.3,24.2,23.7,24.2,23.2,57,57,56,0.249,10.6,10.8,10.3,1.666,1.0,318,37,2.1,-0.00012,-0.00015,40.6,44.4,22,0,0,35.7,8.36,0.00,0.00
15min,AgWx,beryljct,423,08NOV2018:23:00:00,24.5,12.88,25.5,25.5,24.8,25.6,24.2,54,56,53,0.251,10.7,11.0,10.4,1.82,1.9,287,38,4.3,-0.00006,-0.00006,40.4,44.3,22,0,0,35.4,8.36,0.00,0.00
15min,AgWx,beryljct,423,08NOV2018:23:15:00,24.2,12.86,25.6,23.9,25.2,26.1,23.9,55,59,53,0.258,11.2,12.0,10.6,0,2.2,42,9.4,5.3,-0.00004,-0.00004,40.3,44.3,22,0,0,35.7,8.36,0.00,0.00
15min,AgWx,beryljct,423,08NOV2018:23:30:00,23.8,12.72,24.8,24.8,24.1,24.8,23.3,56,59,54,0.247,10.5,11.5,9.9,1.82,1.6,10,12,2.6,-0.00008,-0.00009,40.1,44.2,22,0,0,35.6,8.36,0.00,0.00
15min,AgWx,bigpiney,439,08NOV2018:00:00:00,10.9,12.68,9.2,6.8,9.1,12.4,6.8,81,84,78,0.168,4.4,8.0,1.7,3.968,2.3,246,73,5.0,-0.00006,-0.00007,36.8,39.5,37,0,0,0.0,.,0.00,0.00
15min,AgWx,bigpiney,439,08NOV2018:00:15:00,10.3,12.67,6.5,5.7,6.2,7.9,5.6,82,84,80,0.163,2.0,4.1,1.1,5.261,5.2,227,6.5,6.4,-0.00002,-0.00002,36.8,39.5,37,0,0,0.0,.,0.00,0.00
15min,AgWx,bigpiney,439,08NOV2018:00:30:00,9.7,12.66,5.7,5.6,5.2,5.8,4.7,83,84,82,0.165,1.3,1.7,0.5,0.46,3.5,231,8.4,5.6,-0.00003,-0.00004,36.7,39.5,37,0,0,0.0,.,0.00,0.00
15min,AgWx,bigpiney,439,08NOV2018:00:45:00,9.0,12.65,8.9,8.9,7.9,9.0,5.7,83,85,82,0.187,3.9,4.8,1.8,3.179,1.6,208,11,3.4,-0.00008,-0.00010,36.7,39.5,37,0,0,0.0,.,0.00,0.00
15min,AgWx,bigpiney,439,08NOV2018:01:00:00,8.7,12.64,7.7,7.7,7.3,9.5,4.9,81,86,78,0.177,2.8,5.9,-0.3,4.143,3.3,237,33,5.3,-0.00004,-0.00004,36.7,39.5,37,0,0,0.0,.,0.00,0.00
15min,AgWx,bigpiney,439,08NOV2018:01:15:00,8.6,12.64,10.6,11.5,9.7,11.6,7.4,81,84,78,0.206,5.1,7.2,2.9,1.359,2.6,296,22,3.9,-0.00005,-0.00006,36.7,39.5,37,0,0,0.0,.,0.00,0.00
15min,AgWx,bigpiney,439,08NOV2018:01:30:00,8.9,12.64,11.0,11.9,10.4,11.9,8.6,81,84,79,0.208,5.6,7.0,3.5,2.061,1.6,263,16,3.2,-0.00008,-0.00010,36.7,39.5,37,0,0,0.0,.,0.00,0.00
15min,AgWx,bigpiney,439,08NOV2018:01:45:00,8.9,12.63,8.8,7.0,8.8,12.1,7.0,80,82,77,0.165,3.7,7.0,1.8,4.45,4.5,215,6.5,6.1,-0.00002,-0.00002,36.7,39.5,37,0,0,0.0,.,0.00,0.00
15min,AgWx,bigpiney,439,08NOV2018:02:00:00,8.7,12.63,8.0,7.6,7.4,8.1,7.0,81,82,79,0.176,2.9,3.7,1.9,4.911,4.7,223,7.6,6.0,-0.00002,-0.00002,36.7,39.4,37,0,0,0.0,.,0.00,0.00
15min,AgWx,bigpiney,439,08NOV2018:02:15:00,8.6,12.61,7.9,7.6,7.4,7.8,6.5,82,83,80,0.177,2.9,3.6,1.7,6.314,5.0,215,8.1,6.7,-0.00002,-0.00002,36.7,39.5,37,0,0,0.0,.,0.00,0.00
15min,AgWx,bigpiney,439,08NOV2018:02:30:00,8.5,12.61,7.8,7.2,7.3,7.7,7.1,82,82,82,0.173,3.0,3.4,2.7,5.744,5.9,204,4.9,7.3,-0.00001,-0.00001,36.6,39.5,37,0,0,0.0,.,0.00,0.00
15min,AgWx,bigpiney,439,08NOV2018:02:45:00,8.4,12.61,7.0,6.1,6.6,7.2,6.0,82,83,81,0.165,2.3,3.0,1.5,5.437,5.4,218,3.3,6.6,-0.00002,-0.00001,36.6,39.4,37,0,0,0.0,.,0.00,0.00
15min,AgWx,bigpiney,439,08NOV2018:03:00:00,8.2,12.59,8.1,6.5,7.5,9.5,5.8,82,85,78,0.165,3.1,5.3,1.1,4.538,2.5,224,69,5.6,-0.00005,-0.00006,36.6,39.4,37,0,0,0.0,.,0.00,0.00
15min,AgWx,bigpiney,439,08NOV2018:03:15:00,7.8,12.58,10.5,10.6,9.6,11.0,6.7,83,86,81,0.201,5.5,7.0,2.2,3.332,2.5,356,28,5.1,-0.00006,-0.00007,36.6,39.4,37,0,0,0.0,.,0.00,0.00
15min,AgWx,bigpiney,439,08NOV2018:03:30:00,8.1,12.59,13.2,14.2,12.4,14.2,10.5,81,83,78,0.226,7.7,8.8,6.0,5.656,5.7,284,4.8,7.0,-0.00002,-0.00001,36.6,39.4,37,0,0,0.0,.,0.00,0.00
15min,AgWx,bigpiney,439,08NOV2018:03:45:00,8.9,12.6,14.1,13.1,13.7,14.4,13.1,77,78,76,0.211,7.9,8.6,7.1,2.828,4.1,282,7.6,6.2,-0.00003,-0.00002,36.6,39.5,37,0,0,0.0,.,0.00,0.00
15min,AgWx,bigpiney,439,08NOV2018:04:00:00,9.5,12.59,8.8,7.8,9.0,13.0,7.1,79,83,74,0.179,3.8,7.0,2.1,2.587,2.1,98,51,4.3,-0.00006,-0.00007,36.6,39.5,37,0,0,0.0,.,0.00,0.00
15min,AgWx,bigpiney,439,08NOV2018:04:15:00,9.4,12.58,11.9,12.3,10.9,12.7,7.9,82,86,79,0.212,6.5,8.3,3.8,0,0.6,116,27,3.1,-0.00011,-0.00016,36.5,39.4,37,0,0,0.0,.,0.00,0.00
15min,AgWx,bigpiney,439,08NOV2018:04:30:00,9.2,12.59,12.9,11.7,12.4,13.2,11.5,80,82,78,0.205,7.4,8.6,6.2,4.187,2.3,313,32,5.0,-0.00007,-0.00008,36.5,39.4,37,0,0,0.0,.,0.00,0.00
15min,AgWx,bigpiney,439,08NOV2018:04:45:00,9.2,12.59,10.5,11.0,10.1,11.7,8.9,81,85,76,0.207,5.5,7.7,3.1,3.968,4.5,31,12,7.8,-0.00003,-0.00002,36.5,39.4,37,0,0,0.0,.,0.00,0.00
15min,AgWx,bigpiney,439,08NOV2018:05:00:00,9.3,12.58,12.7,12.5,12.1,12.5,11.1,83,84,82,0.220,7.9,8.5,6.8,3.705,3.7,347,27,4.8,-0.00004,-0.00004,36.5,39.4,37,0,0,0.0,.,0.00,0.00
15min,AgWx,bigpiney,439,08NOV2018:05:15:00,9.5,12.58,12.4,11.9,12.0,12.8,10.6,81,82,77,0.210,7.1,8.1,4.9,4.647,3.4,289,14,4.6,-0.00004,-0.00004,36.5,39.4,37,0,0,0.0,.,0.00,0.00
15min,AgWx,bigpiney,439,08NOV2018:05:30:00,9.7,12.58,10.7,10.1,10.5,12.0,9.7,80,81,79,0.195,5.5,7.0,4.8,4.275,4.8,272,4.2,5.6,-0.00002,-0.00002,36.5,39.4,37,0,0,0.0,.,0.00,0.00
15min,AgWx,bigpiney,439,08NOV2018:05:45:00,9.8,12.58,10.5,11.1,10.0,11.1,9.5,80,81,79,0.198,5.0,5.9,4.3,2.587,3.2,273,11,4.5,-0.00004,-0.00004,36.5,39.4,37,0,0,0.0,.,0.00,0.00
15min,AgWx,bigpiney,439,08NOV2018:06:00:00,9.9,12.58,12.6,11.8,12.0,12.5,11.1,77,79,77,0.203,6.3,6.7,5.8,4.647,2.9,302,15,5.0,-0.00005,-0.00005,36.4,39.4,37,0,0,0.0,.,0.00,0.00
15min,AgWx,bigpiney,439,08NOV2018:06:15:00,10.2,12.58,14.7,16.4,13.8,16.4,11.8,77,80,74,0.235,8.0,9.5,6.3,6.555,5.4,277,6.2,7.0,-0.00001,-0.00000,36.4,39.3,37,0,0,0.0,.,0.00,0.00
15min,AgWx,bigpiney,439,08NOV2018:06:30:00,11.0,12.56,17.4,16.9,16.9,17.0,16.5,72,74,71,0.230,9.4,9.7,9.0,4.713,5.5,284,5.7,7.4,0.00000,0.00001,36.4,39.3,37,0,0,0.0,.,0.00,0.00
15min,AgWx,bigpiney,439,08NOV2018:06:45:00,11.7,12.57,15.7,11.5,15.8,17.1,11.5,71,72,69,0.177,8.0,9.1,3.3,2.258,3.8,315,46,6.0,-0.00002,-0.00001,36.4,39.4,37,0,0,0.0,.,0.00,0.00
15min,AgWx,bigpiney,439,08NOV2018:07:00:00,11.6,12.6,11.9,11.5,11.5,12.2,10.9,76,77,70,0.197,5.5,6.4,3.5,2.959,2.6,8.9,18,3.6,-0.00005,-0.00005,36.4,39.3,37,2,0,0.0,.,0.00,0.00
15min,AgWx,bigpiney,439,08NOV2018:07:15:00,11.1,12.91,11.0,10.5,10.7,11.5,10.0,79,80,77,0.194,5.3,5.9,4.8,4.253,3.9,326,10,4.8,-0.00002,-0.00002,36.4,39.3,37,13,0,0.0,.,0.00,0.00
15min,AgWx,bigpiney,439,08NOV2018:07:30:00,10.7,15.05,10.2,9.7,9.9,10.5,9.3,78,80,76,0.184,4.3,5.3,3.7,3.069,4.0,322,10,5.4,-0.00003,0.00001,36.4,39.3,37,47,0,0.0,.,0.00,0.00
15min,AgWx,bigpiney,439,08NOV2018:07:45:00,10.8,14.99,11.5,11.9,10.8,11.9,9.7,77,78,77,0.201,5.1,6.1,4.2,2.28,2.9,309,7.8,3.7,0.00003,0.00007,36.3,39.3,37,83,0,0.0,.,0.00,0.00
15min,AgWx,bigpiney,439,08NOV2018:08:00:00,11.8,15,13.0,12.7,12.5,13.0,11.9,77,78,76,0.209,6.7,7.3,6.0,2.696,1.5,327,15,3.0,0.00009,0.00012,36.3,39.3,37,118,0,0.0,.,0.00,0.00
15min,AgWx,bigpiney,439,08NOV2018:08:15:00,13.1,15.14,11.3,12.4,10.9,12.7,9.8,81,82,77,0.218,6.1,7.9,4.9,0,1.4,92,18,4.4,0.00019,0.00022,36.3,39.3,37,159,0,0.0,.,0.00,0.00